TimeCDT,TemperatureF,Dew PointF,Humidity,Sea Level PressureIn,VisibilityMPH,Wind Direction,Wind SpeedMPH,Gust SpeedMPH,PrecipitationIn,Events,Conditions,WindDirDegrees,DateUTC
12:58 AM,62.4,62.4,100,29.81,10.0,NW,5.8,-,N/A,,Partly Cloudy,310,2013-06-30 05:58:00
1:03 AM,62.6,62.6,100,29.82,10.0,WNW,6.9,-,N/A,,Mostly Cloudy,300,2013-06-30 06:03:00
1:13 AM,62.6,62.6,100,29.82,10.0,NW,6.9,-,N/A,,Scattered Clouds,320,2013-06-30 06:13:00
1:58 AM,62.2,62.2,100,29.81,10.0,NW,5.8,-,N/A,,Partly Cloudy,310,2013-06-30 06:58:00
2:28 AM,62.6,62.6,100,29.83,10.0,NW,6.9,-,N/A,,Mostly Cloudy,320,2013-06-30 07:28:00
2:43 AM,62.6,62.6,100,29.83,10.0,NNW,8.1,-,N/A,,Mostly Cloudy,330,2013-06-30 07:43:00
2:58 AM,62.4,62.4,100,29.81,10.0,NNW,9.2,-,N/A,,Overcast,330,2013-06-30 07:58:00
3:08 AM,62.6,62.6,100,29.83,10.0,NNW,8.1,-,N/A,,Overcast,330,2013-06-30 08:08:00
3:58 AM,62.4,62.4,100,29.82,10.0,NW,4.6,-,N/A,,Overcast,310,2013-06-30 08:58:00
4:43 AM,62.6,62.6,100,29.84,10.0,NNW,6.9,-,N/A,,Overcast,330,2013-06-30 09:43:00
4:53 AM,62.6,62.6,100,29.84,10.0,NNW,6.9,-,N/A,,Overcast,330,2013-06-30 09:53:00
4:58 AM,62.8,62.8,100,29.82,10.0,NNW,8.1,-,N/A,,Overcast,330,2013-06-30 09:58:00
5:58 AM,62.8,62.8,100,29.84,10.0,NW,8.1,-,N/A,,Overcast,320,2013-06-30 10:58:00
6:23 AM,62.6,62.6,100,29.87,10.0,NW,5.8,-,N/A,,Overcast,320,2013-06-30 11:23:00
6:33 AM,62.6,62.6,100,29.87,10.0,NW,8.1,-,N/A,,Overcast,320,2013-06-30 11:33:00
6:38 AM,62.6,62.6,100,29.87,10.0,NW,5.8,-,N/A,,Overcast,310,2013-06-30 11:38:00
6:43 AM,62.6,62.6,100,29.87,10.0,NW,6.9,-,N/A,,Overcast,320,2013-06-30 11:43:00
6:53 AM,62.6,62.6,100,29.87,10.0,NW,6.9,-,N/A,,Overcast,310,2013-06-30 11:53:00
6:58 AM,62.8,62.8,100,29.86,10.0,NNW,5.8,-,N/A,,Overcast,330,2013-06-30 11:58:00
7:03 AM,62.6,62.6,100,29.87,10.0,NNW,6.9,-,N/A,,Overcast,330,2013-06-30 12:03:00
7:28 AM,64.4,64.4,100,29.88,10.0,NNW,6.9,-,N/A,,Mostly Cloudy,330,2013-06-30 12:28:00
7:33 AM,64.4,64.4,100,29.88,10.0,NW,5.8,-,N/A,,Mostly Cloudy,310,2013-06-30 12:33:00
7:38 AM,62.6,62.6,100,29.88,10.0,NW,6.9,-,N/A,,Overcast,310,2013-06-30 12:38:00
7:53 AM,62.6,62.6,100,29.89,10.0,NNW,6.9,-,N/A,,Overcast,330,2013-06-30 12:53:00
7:58 AM,63.7,63.7,100,29.88,10.0,NNW,6.9,-,N/A,,Overcast,330,2013-06-30 12:58:00
8:18 AM,64.4,64.4,100,29.90,10.0,NW,9.2,-,N/A,,Overcast,320,2013-06-30 13:18:00
8:23 AM,64.4,64.4,100,29.90,10.0,NW,6.9,-,N/A,,Overcast,320,2013-06-30 13:23:00
8:33 AM,66.2,64.4,94,29.90,10.0,NW,8.1,-,N/A,,Overcast,320,2013-06-30 13:33:00
8:38 AM,66.2,64.4,94,29.90,10.0,NNW,8.1,-,N/A,,Overcast,330,2013-06-30 13:38:00
8:48 AM,66.2,62.6,88,29.90,10.0,NW,9.2,-,N/A,,Overcast,310,2013-06-30 13:48:00
8:58 AM,65.7,62.6,90,29.90,10.0,North,10.4,-,N/A,,Overcast,350,2013-06-30 13:58:00
9:43 AM,69.8,62.6,78,29.91,10.0,NNW,10.4,-,N/A,,Overcast,340,2013-06-30 14:43:00
9:58 AM,67.8,62.4,83,29.90,10.0,NNW,9.2,-,N/A,,Overcast,330,2013-06-30 14:58:00
10:58 AM,69.3,61.9,77,29.91,10.0,North,5.8,-,N/A,,Overcast,350,2013-06-30 15:58:00
11:42 AM,71.6,62.6,73,29.92,10.0,NW,12.7,-,N/A,,Mostly Cloudy,320,2013-06-30 16:42:00
11:52 AM,69.8,62.6,78,29.92,10.0,NW,8.1,-,N/A,,Mostly Cloudy,320,2013-06-30 16:52:00
11:58 AM,71.1,62.2,74,29.91,10.0,NW,8.1,-,N/A,,Mostly Cloudy,320,2013-06-30 16:58:00
12:10 PM,69.8,62.6,78,29.92,10.0,NNW,10.4,-,N/A,,Light Drizzle,340,2013-06-30 17:10:00
12:19 PM,71.6,62.6,73,29.92,10.0,North,9.2,-,N/A,,Mostly Cloudy,350,2013-06-30 17:19:00
12:58 PM,71.6,61.9,71,29.91,10.0,NNW,13.8,-,0.00,,Mostly Cloudy,340,2013-06-30 17:58:00
1:58 PM,73.6,63.1,70,29.90,10.0,North,15.0,23.0,N/A,,Mostly Cloudy,360,2013-06-30 18:58:00
2:58 PM,74.5,62.1,65,29.90,10.0,NW,9.2,-,N/A,,Mostly Cloudy,320,2013-06-30 19:58:00
3:58 PM,72.1,63.1,73,29.91,10.0,NNW,9.2,-,N/A,,Overcast,330,2013-06-30 20:58:00
4:45 PM,71.6,62.6,73,29.92,10.0,NNW,9.2,-,N/A,,Light Drizzle,340,2013-06-30 21:45:00
4:55 PM,71.6,62.6,73,29.92,10.0,NNW,9.2,-,N/A,,Mostly Cloudy,330,2013-06-30 21:55:00
4:58 PM,71.8,63.3,75,29.91,10.0,NW,10.4,-,0.00,,Mostly Cloudy,320,2013-06-30 21:58:00
5:58 PM,73.9,62.4,67,29.90,10.0,North,8.1,16.1,N/A,,Scattered Clouds,360,2013-06-30 22:58:00
6:58 PM,71.2,62.1,73,29.91,10.0,NNW,9.2,-,N/A,,Mostly Cloudy,340,2013-06-30 23:58:00
7:58 PM,68.9,62.4,80,29.92,10.0,NNW,8.1,-,N/A,,Overcast,340,2013-07-01 00:58:00
8:58 PM,68.4,62.8,82,29.94,10.0,North,6.9,-,N/A,,Overcast,360,2013-07-01 01:58:00
9:35 PM,68.0,62.6,83,29.97,10.0,NE,8.1,-,N/A,,Light Drizzle,40,2013-07-01 02:35:00
9:45 PM,66.2,62.6,88,29.97,4.0,NNE,8.1,-,N/A,Rain,Light Rain,30,2013-07-01 02:45:00
9:58 PM,64.0,63.0,96,29.96,10.0,NNE,6.9,-,0.02,Rain,Light Rain,20,2013-07-01 02:58:00
10:10 PM,62.6,62.6,100,29.97,10.0,North,2.3,-,N/A,,Mostly Cloudy,350,2013-07-01 03:10:00
10:58 PM,62.4,62.4,100,29.96,10.0,NW,3.5,-,0.00,,Overcast,310,2013-07-01 03:58:00
11:58 PM,62.1,62.1,100,29.96,10.0,WNW,4.6,-,N/A,,Scattered Clouds,300,2013-07-01 04:58:00